DW8050 Weather Reports


time (UTC)temp
C
wind
direction
speed
KPH
gust
KPH
rain 1hr
cm
rain 24hr
cm
rain mn
cm
humidity
%
barometer
mb
20260504050519 0 340 3.2 4.8 0.00 0.00 0.00 85 1004.8
20260504045514 1 342 3.2 4.8 0.00 0.00 0.00 86 1004.9
20260504045014 1 343 1.6 1.6 0.00 0.00 0.00 86 1004.9
20260504044532 1 343 0.0 1.6 0.00 0.00 0.00 86 1005.0
20260504044018 1 343 0.0 1.6 0.00 0.00 0.00 87 1005.0
20260504043517 1 342 0.0 1.6 0.00 0.00 0.00 87 1005.1
20260504043031 1 343 1.6 3.2 0.00 0.00 0.00 87 1005.1
20260504042515 1 343 1.6 3.2 0.00 0.00 0.00 86 1005.2
20260504042015 2 343 1.6 3.2 0.00 0.00 0.00 84 1005.2
20260504041535 2 343 1.6 3.2 0.00 0.00 0.00 83 1005.1
20260504041015 2 0 0.0 1.6 0.00 0.00 0.00 83 1005.1
20260504040519 2 343 0.0 1.6 0.00 0.00 0.00 82 1005.2
20260504040033 2 343 0.0 1.6 0.00 0.00 0.00 82 1005.1
20260504035516 2 343 1.6 1.6 0.00 0.00 0.00 81 1005.2
20260504035018 2 343 0.0 1.6 0.00 0.00 0.00 81 1005.3
20260504034541 3 343 1.6 3.2 0.00 0.00 0.00 81 1005.2
20260504034016 3 342 1.6 3.2 0.00 0.00 0.00 81 1005.4
20260504033521 3 327 1.6 3.2 0.00 0.00 0.00 82 1005.3
20260504033031 3 327 1.6 3.2 0.00 0.00 0.00 81 1005.3
20260504032513 3 0 0.0 1.6 0.00 0.00 0.00 80 1005.4
20260504032012 2 0 0.0 0.0 0.00 0.00 0.00 82 1005.4
20260504031537 2 0 0.0 0.0 0.00 0.00 0.00 82 1005.4
20260504031015 2 0 0.0 0.0 0.00 0.00 0.00 81 1005.5
20260504030515 3 0 0.0 0.0 0.00 0.00 0.00 81 1005.5
20260504030039 3 0 0.0 0.0 0.00 0.00 0.00 81 1005.6
20260504025520 3 0 0.0 0.0 0.00 0.00 0.00 81 1005.6
20260504025015 3 0 0.0 0.0 0.00 0.00 0.00 79 1005.6
20260504024535 3 0 0.0 0.0 0.00 0.00 0.00 80 1005.6
20260504024020 3 0 0.0 0.0 0.00 0.00 0.00 79 1005.7
20260504023515 3 0 0.0 1.6 0.00 0.00 0.00 78 1005.7
20260504023030 3 0 0.0 3.2 0.00 0.00 0.00 79 1005.7
20260504022518 3 0 0.0 3.2 0.00 0.00 0.00 78 1005.8
20260504022015 4 250 1.6 3.2 0.00 0.00 0.00 75 1005.8
20260504021530 5 250 1.6 3.2 0.00 0.00 0.00 73 1005.7
20260504021017 5 143 0.0 1.6 0.00 0.00 0.00 70 1005.9
20260504020516 6 0 0.0 1.6 0.00 0.00 0.00 67 1005.8
20260504020030 6 0 0.0 1.6 0.00 0.00 0.00 66 1005.9
20260504015516 6 0 0.0 1.6 0.00 0.00 0.00 66 1005.8
20260504015018 6 143 0.0 1.6 0.00 0.00 0.00 66 1005.8
20260504014531 6 143 0.0 1.6 0.00 0.00 0.00 67 1005.9
20260504014015 6 143 0.0 1.6 0.00 0.00 0.00 66 1005.9
20260504013515 7 0 0.0 1.6 0.00 0.00 0.00 65 1005.9
20260504013032 7 0 0.0 1.6 0.00 0.00 0.00 65 1005.9
20260504012518 7 0 0.0 6.4 0.00 0.00 0.00 64 1005.8
20260504012016 7 143 1.6 6.4 0.00 0.00 0.00 64 1005.8
20260504011532 8 0 0.0 1.6 0.00 0.00 0.00 58 1005.8
20260504011016 8 51 0.0 1.6 0.00 0.00 0.00 57 1005.8
20260504010513 8 51 0.0 4.8 0.00 0.00 0.00 57 1005.8
20260504010029 8 51 1.6 4.8 0.00 0.00 0.00 56 1005.8
20260504005512 8 51 3.2 4.8 0.00 0.00 0.00 55 1005.9
20260504005016 8 343 0.0 1.6 0.00 0.00 0.00 55 1005.7
20260504004530 8 0 0.0 1.6 0.00 0.00 0.00 54 1005.8
20260504004015 8 343 0.0 1.6 0.00 0.00 0.00 54 1005.7
20260504003515 8 343 0.0 1.6 0.00 0.00 0.00 54 1005.7
20260504003036 8 343 0.0 1.6 0.00 0.00 0.00 53 1005.6
20260504002516 8 343 1.6 1.6 0.00 0.00 0.00 52 1005.6
20260504002016 8 343 1.6 1.6 0.00 0.00 0.00 54 1005.6
20260504001530 9 0 0.0 1.6 0.00 0.00 0.00 53 1005.6
20260504001017 10 343 1.6 1.6 0.00 0.00 0.00 50 1005.5
20260504000515 10 342 0.0 1.6 0.00 0.00 0.00 46 1005.6
20260504000030 10 343 1.6 1.6 0.00 0.00 0.00 45 1005.6
20260503235515 10 342 0.0 1.6 0.00 0.00 0.00 42 1005.5
20260503235015 10 342 0.0 3.2 0.00 0.00 0.00 42 1005.4
20260503234533 10 342 1.6 3.2 0.00 0.00 0.00 42 1005.5
20260503234016 10 342 1.6 3.2 0.00 0.00 0.00 42 1005.5
20260503233516 10 342 1.6 3.2 0.00 0.00 0.00 41 1005.5
20260503233033 11 340 1.6 6.4 0.00 0.00 0.00 41 1005.4
20260503232516 11 0 1.6 6.4 0.00 0.00 0.00 42 1005.5
20260503232016 11 318 1.6 6.4 0.00 0.00 0.00 39 1005.4
20260503231544 11 315 1.6 6.4 0.00 0.00 0.00 38 1005.4
20260503231016 11 317 3.2 4.8 0.00 0.00 0.00 38 1005.5
20260503230516 11 320 3.2 4.8 0.00 0.00 0.00 36 1005.5
20260503230033 11 284 1.6 9.7 0.00 0.00 0.00 36 1005.5
20260503225515 11 290 3.2 11.3 0.00 0.00 0.00 34 1005.5
20260503225016 11 282 4.8 11.3 0.00 0.00 0.00 33 1005.5
20260503224532 11 272 3.2 12.9 0.00 0.00 0.00 34 1005.5
20260503224017 11 282 6.4 16.1 0.00 0.00 0.00 34 1005.5
20260503223517 11 297 4.8 16.1 0.00 0.00 0.00 34 1005.5
20260503223030 11 297 4.8 11.3 0.00 0.00 0.00 35 1005.5
20260503222515 11 306 3.2 14.5 0.00 0.00 0.00 34 1005.5
20260503222016 11 292 4.8 14.5 0.00 0.00 0.00 34 1005.5
20260503221534 11 282 6.4 12.9 0.00 0.00 0.00 34 1005.5
20260503221016 11 278 4.8 11.3 0.00 0.00 0.00 34 1005.5
20260503220516 11 289 4.8 11.3 0.00 0.00 0.00 33 1005.4
20260503220038 11 277 1.6 6.4 0.00 0.00 0.00 34 1005.5
20260503215515 11 286 1.6 6.4 0.00 0.03 0.00 34 1005.4
20260503215016 11 300 3.2 6.4 0.00 0.03 0.00 34 1005.3
20260503214540 11 309 3.2 9.7 0.00 0.03 0.00 33 1005.4
20260503214019 11 286 4.8 14.5 0.00 0.03 0.00 34 1005.3
20260503213516 11 261 6.4 14.5 0.00 0.03 0.00 33 1005.4
20260503213049 11 241 6.4 11.3 0.00 0.03 0.00 34 1005.4
20260503212516 11 246 8.0 12.9 0.00 0.03 0.00 33 1005.3
20260503212016 11 270 6.4 14.5 0.00 0.03 0.00 34 1005.4
20260503211533 11 256 9.7 14.5 0.00 0.03 0.00 33 1005.4
20260503211019 11 246 8.0 14.5 0.00 0.03 0.00 34 1005.4
20260503210516 11 252 6.4 14.5 0.00 0.03 0.00 37 1005.3
20260503210030 11 269 9.7 14.5 0.00 0.03 0.00 33 1005.3
20260503205517 11 261 8.0 12.9 0.00 0.03 0.00 35 1005.4
20260503205020 11 307 6.4 14.5 0.00 0.03 0.00 33 1005.4
20260503204549 11 288 8.0 17.7 0.00 0.03 0.00 33 1005.3
20260503204016 12 261 9.7 19.3 0.00 0.03 0.00 35 1005.3
20260503203517 12 298 8.0 19.3 0.00 0.03 0.00 33 1005.3
20260503203036 12 267 9.7 19.3 0.00 0.03 0.00 34 1005.4
20260503202517 12 287 11.3 19.3 0.00 0.03 0.00 35 1005.4
20260503202016 12 270 11.3 16.1 0.00 0.03 0.00 34 1005.5
20260503201536 12 278 8.0 20.9 0.00 0.03 0.00 33 1005.5
20260503201016 12 248 9.7 20.9 0.00 0.03 0.00 34 1005.5
20260503200516 12 244 6.4 20.9 0.00 0.03 0.00 35 1005.5
20260503200031 12 310 9.7 20.9 0.00 0.03 0.00 32 1005.6
20260503195515 12 288 8.0 20.9 0.00 0.03 0.00 35 1005.7
20260503195015 12 350 8.0 14.5 0.00 0.03 0.00 36 1005.7
20260503194532 11 290 4.8 12.9 0.00 0.03 0.00 35 1005.8
20260503194017 12 331 4.8 14.5 0.00 0.03 0.00 34 1006.0
20260503193518 11 286 4.8 14.5 0.00 0.03 0.00 35 1006.0
20260503193032 11 314 8.0 19.3 0.00 0.03 0.00 38 1006.1
20260503192517 11 351 8.0 19.3 0.00 0.03 0.00 35 1006.2
20260503192016 11 333 6.4 14.5 0.00 0.03 0.00 38 1006.4
20260503191530 11 333 4.8 19.3 0.00 0.03 0.00 38 1006.4
20260503191018 11 281 11.3 22.5 0.00 0.03 0.00 40 1006.5
20260503190516 11 288 12.9 24.1 0.00 0.03 0.00 41 1006.6
20260503190029 11 282 9.7 24.1 0.00 0.03 0.00 38 1006.6
20260503185520 11 307 8.0 24.1 0.00 0.03 0.00 39 1006.6
20260503185016 10 339 8.0 14.5 0.00 0.03 0.00 41 1006.7
20260503184534 10 346 8.0 19.3 0.00 0.03 0.00 41 1006.8
20260503184020 10 273 9.7 19.3 0.00 0.03 0.00 42 1006.7
20260503183516 10 279 8.0 25.7 0.00 0.03 0.00 41 1006.9
20260503183040 10 261 8.0 25.7 0.00 0.03 0.00 41 1007.0
20260503182515 11 298 11.3 25.7 0.00 0.03 0.00 41 1007.1
20260503182016 10 28 8.0 20.9 0.00 0.03 0.00 45 1007.2
20260503181532 10 323 4.8 17.7 0.00 0.03 0.00 46 1007.3
20260503181017 10 311 6.4 17.7 0.00 0.03 0.00 45 1007.3
20260503180517 10 326 6.4 14.5 0.00 0.03 0.00 45 1007.3
20260503180034 10 301 8.0 14.5 0.00 0.03 0.00 46 1007.4
20260503175520 9 271 4.8 12.9 0.00 0.03 0.00 48 1007.5
20260503175016 9 316 6.4 14.5 0.00 0.03 0.00 47 1007.5
20260503174545 9 271 8.0 16.1 0.00 0.03 0.00 47 1007.6
20260503174017 9 319 3.2 16.1 0.00 0.03 0.00 48 1007.6
20260503173516 9 285 8.0 16.1 0.00 0.03 0.00 48 1007.6
20260503173032 9 282 8.0 16.1 0.00 0.03 0.00 49 1007.7
20260503172516 8 261 6.4 19.3 0.00 0.03 0.00 50 1007.6
20260503172016 8 250 12.9 19.3 0.00 0.03 0.00 52 1007.9
20260503171535 8 239 4.8 17.7 0.00 0.03 0.00 52 1008.0
20260503171020 8 242 6.4 19.3 0.00 0.03 0.00 51 1008.1
20260503170516 8 297 8.0 22.5 0.00 0.03 0.00 50 1008.2
20260503150521 7 257 3.2 14.5 0.00 0.03 0.00 51 1009.4
20260503131017 5 5 1.6 4.8 0.00 0.03 0.00 72 1010.5
20260503130518 5 316 1.6 4.8 0.00 0.03 0.00 72 1010.5
20260503110521 1 19 1.6 3.2 0.00 0.03 0.00 89 1010.2
20260503081545 1 22 0.0 3.2 0.00 0.03 0.00 93 1010.6
20260503081019 1 22 1.6 3.2 0.00 0.03 0.00 94 1010.6
20260503080516 1 22 1.6 3.2 0.00 0.03 0.00 95 1010.5
20260503072518 1 0 0.0 0.0 0.00 0.03 0.00 94 1010.4